• In Hungary
  • List of Countries
  • For 7 days
  • Water Temperature
  • Satellite Maps
  • Weather Map
  • News
  • Weather Widgets
  • user-avatar
    Login

    Hourly Weather Benesov

    Today, 19 September, Wednesday

    Time Temperature Precipitation Wind Pressure Humidity
    00:00 +18°C° 0 mm 2 mps 731 mmHg 77%
    01:00 +18°C° 0 mm 1 mps 731 mmHg 78%
    02:00 +18°C° 0 mm 1 mps 731 mmHg 79%
    03:00 +18°C° 0 mm 1 mps 731 mmHg 80%
    04:00 +18°C° 0 mm 1 mps 731 mmHg 81%
    05:00 +18°C° 0 mm 1 mps 731 mmHg 80%
    06:00 +18°C° 0 mm 1 mps 732 mmHg 80%
    07:00 +19°C° 0 mm 1 mps 732 mmHg 80%
    08:00 +21°C° 0 mm 1 mps 732 mmHg 74%
    09:00 +22°C° 0 mm 1 mps 733 mmHg 68%
    10:00 +24°C° 0 mm 1 mps 733 mmHg 62%
    11:00 +25°C° 0.1 mm 1 mps 733 mmHg 58%
    12:00 +27°C° 0.1 mm 1 mps 733 mmHg 54%
    13:00 +28°C° 0.1 mm 1 mps 733 mmHg 49%
    14:00 +28°C° 0 mm 1 mps 733 mmHg 49%
    15:00 +28°C° 0 mm 1 mps 732 mmHg 48%
    16:00 +28°C° 0 mm 1 mps 732 mmHg 48%
    17:00 +26°C° 0 mm 1 mps 732 mmHg 53%
    18:00 +24°C° 0 mm 1 mps 732 mmHg 59%
    19:00 +22°C° 0 mm 1 mps 733 mmHg 65%
    20:00 +22°C° 0.1 mm 1 mps 733 mmHg 68%
    21:00 +20°C° 0.1 mm 2 mps 733 mmHg 72%
    22:00 +19°C° 0.1 mm 2 mps 733 mmHg 75%
    23:00 +19°C° 0.3 mm 2 mps 733 mmHg 77%

    Tomorrow, 20 September, Thursday

    Time Temperature Precipitation Wind Pressure Humidity
    00:00 +18°C° 0.3 mm 2 mps 733 mmHg 79%
    01:00 +19°C° 0.3 mm 1 mps 733 mmHg 81%
    02:00 +19°C° 0.1 mm 1 mps 733 mmHg 82%
    03:00 +18°C° 0.1 mm 1 mps 732 mmHg 83%
    04:00 +18°C° 0.1 mm 1 mps 732 mmHg 84%
    05:00 +18°C° 0 mm 1 mps 733 mmHg 83%
    06:00 +19°C° 0 mm 1 mps 733 mmHg 82%
    07:00 +19°C° 0 mm 1 mps 733 mmHg 82%
    08:00 +21°C° 0 mm 1 mps 733 mmHg 75%
    09:00 +23°C° 0 mm 1 mps 733 mmHg 68%
    10:00 +25°C° 0 mm 1 mps 733 mmHg 61%
    11:00 +26°C° 0 mm 1 mps 733 mmHg 57%
    12:00 +27°C° 0 mm 1 mps 733 mmHg 53%
    13:00 +28°C° 0 mm 2 mps 733 mmHg 49%
    14:00 +28°C° 0 mm 1 mps 732 mmHg 49%
    15:00 +28°C° 0 mm 1 mps 732 mmHg 48%
    16:00 +28°C° 0 mm 1 mps 732 mmHg 48%
    17:00 +26°C° 0 mm 1 mps 732 mmHg 53%
    18:00 +24°C° 0 mm 1 mps 731 mmHg 59%
    19:00 +22°C° 0 mm 1 mps 731 mmHg 64%
    20:00 +21°C° 0 mm 2 mps 731 mmHg 67%
    21:00 +20°C° 0 mm 2 mps 731 mmHg 69%
    22:00 +19°C° 0 mm 2 mps 731 mmHg 72%
    23:00 +19°C° 0 mm 2 mps 730 mmHg 72%

    Day after tomorrow, 21 September, Friday

    Time Temperature Precipitation Wind Pressure Humidity
    00:00 +18°C° 0 mm 2 mps 730 mmHg 73%
    01:00 +18°C° 0 mm 2 mps 730 mmHg 74%
    02:00 +17°C° 0 mm 2 mps 729 mmHg 74%
    03:00 +17°C° 0 mm 2 mps 729 mmHg 75%
    04:00 +17°C° 0 mm 2 mps 729 mmHg 75%
    05:00 +17°C° 0 mm 2 mps 728 mmHg 75%
    06:00 +17°C° 0 mm 2 mps 728 mmHg 75%
    07:00 +17°C° 0 mm 2 mps 728 mmHg 75%
    08:00 +19°C° 0 mm 3 mps 728 mmHg 69%
    09:00 +21°C° 0 mm 3 mps 728 mmHg 63%
    10:00 +23°C° 0 mm 4 mps 728 mmHg 57%
    11:00 +26°C° 0 mm 4 mps 727 mmHg 54%
    12:00 +27°C° 0 mm 4 mps 727 mmHg 51%
    13:00 +28°C° 0 mm 4 mps 727 mmHg 47%
    14:00 +28°C° 0 mm 4 mps 726 mmHg 48%
    15:00 +28°C° 0 mm 4 mps 725 mmHg 49%
    16:00 +28°C° 0 mm 3 mps 724 mmHg 49%
    17:00 +26°C° 0 mm 3 mps 724 mmHg 54%
    18:00 +25°C° 0 mm 3 mps 724 mmHg 58%
    19:00 +22°C° 0 mm 3 mps 723 mmHg 62%
    20:00 +21°C° 0.2 mm 4 mps 724 mmHg 65%
    21:00 +20°C° 0.2 mm 5 mps 725 mmHg 68%
    22:00 +19°C° 0.2 mm 6 mps 725 mmHg 71%
    23:00 +16°C° 2.3 mm 6 mps 727 mmHg 76%

    22 September, Saturday

    Time Temperature Precipitation Wind Pressure Humidity
    00:00 +14°C° 2.3 mm 6 mps 728 mmHg 80%
    01:00 +10°C° 2.3 mm 6 mps 729 mmHg 84%
    02:00 +10°C° 0.3 mm 6 mps 730 mmHg 82%
    03:00 +9°C° 0.3 mm 6 mps 731 mmHg 80%
    04:00 +9°C° 0.3 mm 5 mps 732 mmHg 78%
    05:00 +9°C° 0 mm 5 mps 732 mmHg 78%
    06:00 +9°C° 0 mm 6 mps 733 mmHg 78%
    07:00 +8°C° 0 mm 6 mps 733 mmHg 78%
    08:00 +9°C° 0 mm 6 mps 733 mmHg 72%
    09:00 +10°C° 0 mm 6 mps 733 mmHg 66%
    10:00 +11°C° 0 mm 6 mps 733 mmHg 61%
    11:00 +13°C° 0 mm 6 mps 733 mmHg 57%
    12:00 +14°C° 0 mm 6 mps 733 mmHg 54%
    13:00 +15°C° 0 mm 5 mps 733 mmHg 50%
    14:00 +15°C° 0 mm 5 mps 733 mmHg 49%
    15:00 +15°C° 0 mm 5 mps 733 mmHg 48%
    16:00 +15°C° 0 mm 4 mps 733 mmHg 46%
    17:00 +14°C° 0 mm 4 mps 733 mmHg 51%
    18:00 +12°C° 0 mm 3 mps 733 mmHg 55%
    19:00 +11°C° 0 mm 3 mps 733 mmHg 59%
    20:00 +11°C° 0 mm 3 mps 734 mmHg 61%
    21:00 +10°C° 0 mm 3 mps 734 mmHg 63%
    22:00 +9°C° 0 mm 3 mps 734 mmHg 64%
    23:00 +9°C° 0 mm 3 mps 734 mmHg 66%

    23 September, Sunday

    Time Temperature Precipitation Wind Pressure Humidity
    00:00 +9°C° 0 mm 2 mps 734 mmHg 68%
    01:00 +8°C° 0 mm 2 mps 734 mmHg 69%
    02:00 +8°C° 0 mm 2 mps 733 mmHg 71%
    03:00 +8°C° 0 mm 2 mps 733 mmHg 72%
    04:00 +7°C° 0 mm 2 mps 733 mmHg 73%
    05:00 +8°C° 0 mm 2 mps 732 mmHg 72%
    06:00 +8°C° 0 mm 2 mps 732 mmHg 72%
    07:00 +8°C° 0 mm 2 mps 732 mmHg 71%
    08:00 +10°C° 0 mm 3 mps 731 mmHg 67%
    09:00 +11°C° 0 mm 3 mps 731 mmHg 62%
    10:00 +13°C° 0 mm 3 mps 730 mmHg 58%
    11:00 +14°C° 0 mm 4 mps 729 mmHg 55%
    12:00 +15°C° 0 mm 5 mps 728 mmHg 51%
    13:00 +16°C° 0 mm 5 mps 727 mmHg 48%
    14:00 +15°C° 0.7 mm 5 mps 726 mmHg 55%
    15:00 +14°C° 0.7 mm 5 mps 725 mmHg 63%
    16:00 +13°C° 0.7 mm 4 mps 724 mmHg 71%
    17:00 +13°C° 0.3 mm 5 mps 723 mmHg 72%
    18:00 +13°C° 0.3 mm 5 mps 721 mmHg 73%
    19:00 +13°C° 0.3 mm 6 mps 720 mmHg 73%
    20:00 +13°C° 0.4 mm 6 mps 719 mmHg 74%
    21:00 +13°C° 0.4 mm 6 mps 718 mmHg 74%
    22:00 +13°C° 0.4 mm 6 mps 716 mmHg 74%
    23:00 +11°C° 2.7 mm 6 mps 717 mmHg 78%

    24 September, Monday

    Time Temperature Precipitation Wind Pressure Humidity
    00:00 +11°C° 2.7 mm 6 mps 718 mmHg 82%
    01:00 +11°C° 2.7 mm 6 mps 719 mmHg 85%
    02:00 +10°C° 0.1 mm 6 mps 718 mmHg 82%
    03:00 +9°C° 0.1 mm 6 mps 718 mmHg 79%
    04:00 +9°C° 0.1 mm 7 mps 717 mmHg 76%
    05:00 +9°C° 0.2 mm 8 mps 717 mmHg 76%
    06:00 +8°C° 0.2 mm 9 mps 717 mmHg 76%
    07:00 +8°C° 0.2 mm 10 mps 716 mmHg 77%
    08:00 +8°C° 0.1 mm 10 mps 717 mmHg 76%
    09:00 +9°C° 0.1 mm 10 mps 717 mmHg 76%
    10:00 +9°C° 0.1 mm 10 mps 717 mmHg 75%
    11:00 +9°C° 0.2 mm 10 mps 718 mmHg 75%
    12:00 +9°C° 0.2 mm 10 mps 719 mmHg 74%
    13:00 +9°C° 0.2 mm 11 mps 720 mmHg 73%
    14:00 +9°C° 0.1 mm 10 mps 721 mmHg 73%
    15:00 +9°C° 0.1 mm 10 mps 721 mmHg 72%
    16:00 +9°C° 0.1 mm 10 mps 722 mmHg 72%
    17:00 +8°C° 0.1 mm 10 mps 722 mmHg 73%
    18:00 +8°C° 0.1 mm 10 mps 723 mmHg 74%
    19:00 +8°C° 0.1 mm 10 mps 723 mmHg 74%
    20:00 +7°C° 0.4 mm 10 mps 723 mmHg 76%
    21:00 +7°C° 0.4 mm 10 mps 724 mmHg 78%
    22:00 +7°C° 0.4 mm 10 mps 724 mmHg 80%
    23:00 +6°C° 0.7 mm 9 mps 725 mmHg 81%
    Show more